Date String (YYYY-MM-DD hh:mm:ss) UTC,Instrument flags,Ambient pressure (hPa),Sample flow (lpm),Bypass flow (lpm),Sample temperature (°C),Ambient temperature (°C),ASC tube jacket temperature (°C),LED temperature (°C),Box temperature (°C),Sample RH (%),Span deviation,Mass concentration (μg/m³),Mass concentration (μg/m³),Mass concentration (μg/m³)
DateTimeUTC,F1_M11,P_M11,Q1_M11,Q2_M11,T1_M11,T2_M11,T3_M11,T4_M11,T5_M11,U1_M11,ZSPAN_M11,X0_M11,X2_M11,X1_M11
2022-05-12 17:00:00,,0819.1,5.02,0.00,29.6,28.6,00.0,38.6,31.3,04.6,0000.0,0023.88,0005.16,0002.01
2022-05-12 17:01:00,,0819.0,5.00,0.00,29.6,28.6,00.0,38.6,31.3,04.4,0000.0,0024.02,0005.17,0001.98
2022-05-12 17:02:00,,0818.9,5.00,0.00,29.6,28.5,00.0,38.6,31.3,04.4,0000.0,0024.41,0005.28,0001.98
2022-05-12 17:03:00,,0818.9,5.01,0.00,29.6,28.5,00.0,38.6,31.3,04.6,0000.0,0025.20,0005.31,0001.97
2022-05-12 17:04:00,,0818.9,5.00,0.00,29.6,28.5,00.0,38.6,31.3,04.5,0000.0,0024.76,0005.22,0001.96
2022-05-12 17:05:00,,0818.9,5.00,0.00,29.6,28.5,00.0,38.6,31.3,04.3,0000.0,0025.85,0005.19,0001.93
2022-05-12 17:06:00,,0818.9,4.99,0.00,29.6,28.4,00.0,38.6,31.3,04.4,0000.0,0026.44,0005.23,0001.91
2022-05-12 17:07:00,,0818.9,5.01,0.00,29.6,28.4,00.0,38.5,31.3,04.4,0000.0,0027.78,0005.33,0001.91
2022-05-12 17:08:00,,0818.8,5.00,0.00,29.5,28.4,00.0,38.5,31.3,04.2,0000.0,0030.51,0005.50,0001.91
2022-05-12 17:09:00,,0818.9,4.99,0.00,29.5,28.4,00.0,38.5,31.3,04.3,0000.0,0031.09,0005.50,0001.90
2022-05-12 17:10:00,,0819.1,5.00,0.00,29.5,28.4,00.0,38.5,31.2,04.3,0000.0,0030.57,0005.48,0001.91
2022-05-12 17:11:00,,0819.0,4.99,0.00,29.5,28.4,00.0,38.5,31.2,04.3,0000.0,0029.41,0005.48,0001.89
2022-05-12 17:12:00,,0819.0,5.01,0.00,29.5,28.3,00.0,38.5,31.2,04.3,0000.0,0028.70,0005.43,0001.90
2022-05-12 17:13:00,,0818.9,5.01,0.00,29.5,28.3,00.0,38.5,31.1,04.3,0000.0,0029.17,0005.27,0001.88
2022-05-12 17:14:00,,0818.9,4.99,0.00,29.5,28.3,00.0,38.5,31.1,04.1,0000.0,0027.89,0005.10,0001.85
2022-05-12 17:15:00,,0819.1,5.01,0.00,29.4,28.3,00.0,38.5,31.1,04.1,0000.0,0028.01,0004.97,0001.83
2022-05-12 17:16:00,,0819.0,5.00,0.00,29.4,28.3,00.0,38.5,31.1,04.1,0000.0,0026.97,0004.90,0001.81
2022-05-12 17:17:00,,0819.3,5.02,0.00,29.4,28.3,00.0,38.4,31.1,04.1,0000.0,0025.85,0004.84,0001.82
2022-05-12 17:18:00,,0819.5,4.99,0.00,29.4,28.2,00.0,38.4,31.1,04.4,0000.0,0023.29,0004.68,0001.81
2022-05-12 17:19:00,,0819.7,5.00,0.00,29.4,28.3,00.0,38.4,31.1,04.2,0000.0,0019.72,0004.46,0001.80
2022-05-12 17:20:00,,0819.8,5.01,0.00,29.4,28.3,00.0,38.4,31.1,04.1,0000.0,0019.06,0004.36,0001.79
2022-05-12 17:21:00,,0819.7,5.01,0.00,29.4,28.3,00.0,38.4,31.1,04.2,0000.0,0018.24,0004.38,0001.80
2022-05-12 17:22:00,,0819.8,4.99,0.00,29.4,28.3,00.0,38.4,31.1,04.2,0000.0,0019.00,0004.36,0001.81
2022-05-12 17:23:00,,0820.0,5.00,0.00,29.4,28.3,00.0,38.4,31.1,03.9,0000.0,0018.77,0004.34,0001.82
2022-05-12 17:24:00,,0820.2,5.00,0.00,29.4,28.3,00.0,38.4,31.1,04.1,0000.0,0017.57,0004.33,0001.82
2022-05-12 17:25:00,,0820.3,4.99,0.00,29.4,28.3,00.0,38.4,31.1,04.4,0000.0,0017.62,0004.25,0001.82
2022-05-12 17:26:00,,0820.3,4.99,0.00,29.4,28.3,00.0,38.4,31.1,04.2,0000.0,0016.00,0004.20,0001.81
2022-05-12 17:27:00,,0820.4,5.00,0.00,29.4,28.3,00.0,38.4,31.2,04.0,0000.0,0015.15,0004.15,0001.80
2022-05-12 17:28:00,,0820.4,5.01,0.00,29.4,28.3,00.0,38.4,31.1,04.1,0000.0,0015.11,0004.15,0001.81
2022-05-12 17:29:00,,0820.4,5.01,0.00,29.4,28.3,00.0,38.4,31.1,04.1,0000.0,0014.83,0004.09,0001.80
2022-05-12 17:30:00,,0820.7,5.01,0.00,29.4,28.3,00.0,38.4,31.1,04.3,0000.0,0014.99,0004.11,0001.79
2022-05-12 17:31:00,,0820.8,4.99,0.00,29.4,28.3,00.0,38.4,31.1,04.2,0000.0,0014.68,0004.08,0001.77
2022-05-12 17:32:00,,0820.8,5.00,0.00,29.4,28.3,00.0,38.4,31.1,04.0,0000.0,0014.27,0003.98,0001.76
2022-05-12 17:33:00,,0820.9,5.01,0.00,29.4,28.3,00.0,38.3,31.1,04.1,0000.0,0012.55,0003.94,0001.74
2022-05-12 17:34:00,,0820.8,5.00,0.00,29.4,28.4,00.0,38.4,31.1,04.5,0000.0,0012.39,0003.92,0001.72
2022-05-12 17:35:00,,0820.7,5.00,0.00,29.4,28.4,00.0,38.4,31.1,04.2,0000.0,0011.91,0003.88,0001.70
2022-05-12 17:36:00,,0820.8,5.00,0.00,29.4,28.4,00.0,38.4,31.1,04.2,0000.0,0011.19,0003.89,0001.69
2022-05-12 17:37:00,,0820.6,5.00,0.00,29.4,28.4,00.0,38.4,31.1,04.2,0000.0,0011.11,0003.92,0001.69
2022-05-12 17:38:00,,0820.6,5.00,0.00,29.4,28.4,00.0,38.4,31.1,04.0,0000.0,0011.03,0003.90,0001.71
2022-05-12 17:39:00,,0820.6,5.00,0.00,29.4,28.4,00.0,38.4,31.2,04.2,0000.0,0010.96,0003.85,0001.70
2022-05-12 17:40:00,,0820.8,5.01,0.00,29.4,28.4,00.0,38.3,31.1,04.3,0000.0,0010.79,0003.81,0001.69
2022-05-12 17:41:00,,0820.7,5.00,0.00,29.4,28.4,00.0,38.4,31.1,04.4,0000.0,0010.69,0003.81,0001.69
2022-05-12 17:42:00,,0820.9,5.00,0.00,29.4,28.3,00.0,38.4,31.1,04.0,0000.0,0010.82,0003.85,0001.70
2022-05-12 17:43:00,,0821.0,5.00,0.00,29.4,28.3,00.0,38.4,31.1,04.0,0000.0,0013.13,0003.95,0001.71
2022-05-12 17:44:00,,0821.0,4.99,0.00,29.4,28.4,00.0,38.4,31.1,04.0,0000.0,0013.60,0003.98,0001.71
2022-05-12 17:45:00,,0821.0,5.00,0.00,29.4,28.4,00.0,38.4,31.1,04.3,0000.0,0013.58,0003.96,0001.69
2022-05-12 17:46:00,,0821.0,5.01,0.00,29.4,28.4,00.0,38.4,31.1,04.7,0000.0,0013.69,0003.93,0001.69
2022-05-12 17:47:00,,0821.0,5.00,0.00,29.4,28.4,00.0,38.4,31.2,04.3,0000.0,0013.78,0003.96,0001.69
2022-05-12 17:48:00,,0821.0,5.01,0.00,29.4,28.4,00.0,38.4,31.2,04.4,0000.0,0013.89,0003.92,0001.69
2022-05-12 17:49:00,,0821.0,5.00,0.00,29.4,28.4,00.0,38.4,31.1,04.1,0000.0,0014.59,0003.89,0001.68
2022-05-12 17:50:00,,0821.1,4.99,0.00,29.4,28.5,00.0,38.4,31.2,04.5,0000.0,0015.06,0003.89,0001.67
2022-05-12 17:51:00,,0821.1,5.00,0.00,29.4,28.5,00.0,38.4,31.1,04.7,0000.0,0015.40,0003.89,0001.66
2022-05-12 17:52:00,,0821.1,5.01,0.00,29.4,28.4,00.0,38.4,31.2,04.4,0000.0,0016.09,0003.95,0001.67
2022-05-12 17:53:00,,0821.0,5.00,0.00,29.4,28.4,00.0,38.4,31.2,04.3,0000.0,0015.94,0003.99,0001.66
2022-05-12 17:54:00,,0821.2,5.00,0.00,29.4,28.4,00.0,38.4,31.2,04.1,0000.0,0013.90,0003.92,0001.67
2022-05-12 17:55:00,,0821.4,5.01,0.00,29.4,28.5,00.0,38.4,31.2,04.6,0000.0,0013.41,0003.87,0001.67
2022-05-12 17:56:00,,0821.4,5.00,0.00,29.4,28.5,00.0,38.4,31.2,05.0,0000.0,0014.68,0003.89,0001.68
2022-05-12 17:57:00,,0821.4,5.00,0.00,29.5,28.5,00.0,38.4,31.2,04.6,0000.0,0014.96,0003.87,0001.69
2022-05-12 17:58:00,,0821.3,5.01,0.00,29.4,28.5,00.0,38.4,31.2,03.9,0000.0,0015.84,0003.87,0001.70
2022-05-12 17:59:00,,0821.2,5.00,0.00,29.4,28.4,00.0,38.4,31.2,03.5,0000.0,0016.22,0003.84,0001.69
